{"data":{"norad_id":59937,"intl_designator":"2024-106R","name":"STARLINK-31879","alt_names":[],"object_type":"PAYLOAD","status":"ACTIVE","operator":null,"country":"US","launch_date":"2024-06-01","launch_site_code":"AFETR","launch_vehicle":null,"mission":null,"orbit_class":"UNKNOWN","rcs_meters":null,"size_class":null,"mass_kg":null,"dimensions":null,"purposes":["comms"],"wikipedia_slug":null,"has_3d_model":false,"image_url":null,"decayed_at":null,"tle_current":{"epoch":"2026-09-21T10:19:19.947936Z","epoch_age_seconds":94177,"freshness":"FRESH","line1":"1 59937U 24106R   26264.43009199  .00000067  00000+0  11963-4 0  9997","line2":"2 59937  43.0022 307.5211 0000984 277.7742  82.2998 15.27575598130503","mean_motion":15.27575598,"eccentricity":9.84e-5,"inclination_deg":43.0022,"raan_deg":307.5211,"arg_perigee_deg":277.7742,"mean_anomaly_deg":82.2998,"bstar":1.1963e-5,"rev_number":13050,"period_min":94.26702036124,"perigee_km":482.38713523404,"apogee_km":483.7374192518,"semimajor_km":6861.1992772429,"source":"CELESTRAK","updated_at":"2026-09-22T09:00:49.113713Z"}}}